owner,sensor,date,latitude,longitude,vertical_datum,sea_water_practical_salinity,qcFlag 
DISL,ioos:station:DISL:MHPA:1,2015-03-01T00:00:00Z,30.6671,-87.9365,1.171,0.12,1111122 
DISL,ioos:station:DISL:MHPA:1,2015-03-01T00:30:00Z,30.6671,-87.9365,1.181,0.13,1111122 
DISL,ioos:station:DISL:MHPA:1,2015-03-01T01:00:00Z,30.6671,-87.9365,1.171,0.13,1111122 
DISL,ioos:station:DISL:MHPA:1,2015-03-01T01:30:00Z,30.6671,-87.9365,1.185,0.12,1111122 
DISL,ioos:station:DISL:MHPA:1,2015-03-01T02:00:00Z,30.6671,-87.9365,1.204,0.1,1111122 
DISL,ioos:station:DISL:MHPA:1,2015-03-01T02:30:00Z,30.6671,-87.9365,1.2,0.11,1111122 
DISL,ioos:station:DISL:MHPA:1,2015-03-01T03:00:00Z,30.6671,-87.9365,1.189,0.11,1111122 
DISL,ioos:station:DISL:MHPA:1,2015-03-01T03:30:00Z,30.6671,-87.9365,1.181,0.1,1111122 
DISL,ioos:station:DISL:MHPA:1,2015-03-01T04:00:00Z,30.6671,-87.9365,1.181,0.11,1111122 
DISL,ioos:station:DISL:MHPA:1,2015-03-01T04:30:00Z,30.6671,-87.9365,1.153,0.11,1111122 
DISL,ioos:station:DISL:MHPA:1,2015-03-01T05:00:00Z,30.6671,-87.9365,1.125,0.11,1111122 
DISL,ioos:station:DISL:MHPA:1,2015-03-01T05:30:00Z,30.6671,-87.9365,1.091,0.11,1111122 
DISL,ioos:station:DISL:MHPA:1,2015-03-01T06:00:00Z,30.6671,-87.9365,1.066,0.1,1111122 
DISL,ioos:station:DISL:MHPA:1,2015-03-01T06:30:00Z,30.6671,-87.9365,1.041,0.1,1111122 
DISL,ioos:station:DISL:MHPA:1,2015-03-01T07:00:00Z,30.6671,-87.9365,1.01,0.1,1111122 
DISL,ioos:station:DISL:MHPA:1,2015-03-01T07:30:00Z,30.6671,-87.9365,0.981,0.1,1111122 
DISL,ioos:station:DISL:MHPA:1,2015-03-01T08:00:00Z,30.6671,-87.9365,0.954,0.11,1111122 
DISL,ioos:station:DISL:MHPA:1,2015-03-01T08:30:00Z,30.6671,-87.9365,0.927,0.12,1111122 
DISL,ioos:station:DISL:MHPA:1,2015-03-01T09:00:00Z,30.6671,-87.9365,0.897,0.11,1111122 
DISL,ioos:station:DISL:MHPA:1,2015-03-01T09:30:00Z,30.6671,-87.9365,0.871,0.11,1111122 
DISL,ioos:station:DISL:MHPA:1,2015-03-01T10:00:00Z,30.6671,-87.9365,0.851,0.1,1111122 
DISL,ioos:station:DISL:MHPA:1,2015-03-01T10:30:00Z,30.6671,-87.9365,0.835,0.1,1111122 
DISL,ioos:station:DISL:MHPA:1,2015-03-01T11:00:00Z,30.6671,-87.9365,0.821,0.1,1111122 
DISL,ioos:station:DISL:MHPA:1,2015-03-01T11:30:00Z,30.6671,-87.9365,0.811,0.1,1111122 
DISL,ioos:station:DISL:MHPA:1,2015-03-01T12:00:00Z,30.6671,-87.9365,0.805,0.1,1111122 
DISL,ioos:station:DISL:MHPA:1,2015-03-01T12:30:00Z,30.6671,-87.9365,0.802,0.09,1111122 
DISL,ioos:station:DISL:MHPA:1,2015-03-01T13:00:00Z,30.6671,-87.9365,0.798,0.09,1111122 
DISL,ioos:station:DISL:MHPA:1,2015-03-01T13:30:00Z,30.6671,-87.9365,0.794,0.1,1111122 
DISL,ioos:station:DISL:MHPA:1,2015-03-01T14:00:00Z,30.6671,-87.9365,0.795,0.1,1111122 
DISL,ioos:station:DISL:MHPA:1,2015-03-01T14:30:00Z,30.6671,-87.9365,0.798,0.1,1111122 
DISL,ioos:station:DISL:MHPA:1,2015-03-01T15:00:00Z,30.6671,-87.9365,0.801,0.1,1111122 
DISL,ioos:station:DISL:MHPA:1,2015-03-01T15:30:00Z,30.6671,-87.9365,0.805,0.1,1111122 
DISL,ioos:station:DISL:MHPA:1,2015-03-01T16:00:00Z,30.6671,-87.9365,0.837,0.1,1111122 
DISL,ioos:station:DISL:MHPA:1,2015-03-01T16:30:00Z,30.6671,-87.9365,0.902,0.1,1111122 
DISL,ioos:station:DISL:MHPA:1,2015-03-01T17:00:00Z,30.6671,-87.9365,0.934,0.1,1111122 
DISL,ioos:station:DISL:MHPA:1,2015-03-01T17:30:00Z,30.6671,-87.9365,0.963,0.1,1111122 
DISL,ioos:station:DISL:MHPA:1,2015-03-01T18:00:00Z,30.6671,-87.9365,0.989,0.1,1111122 
DISL,ioos:station:DISL:MHPA:1,2015-03-01T18:30:00Z,30.6671,-87.9365,1.001,0.1,1111122 
DISL,ioos:station:DISL:MHPA:1,2015-03-01T19:00:00Z,30.6671,-87.9365,1.004,0.1,1111122 
DISL,ioos:station:DISL:MHPA:1,2015-03-01T19:30:00Z,30.6671,-87.9365,1.008,0.09,1111122 
DISL,ioos:station:DISL:MHPA:1,2015-03-01T20:00:00Z,30.6671,-87.9365,1.029,0.09,1111122 
DISL,ioos:station:DISL:MHPA:1,2015-03-01T20:30:00Z,30.6671,-87.9365,1.061,0.09,1111122 
DISL,ioos:station:DISL:MHPA:1,2015-03-01T21:00:00Z,30.6671,-87.9365,1.07,0.09,1111122 
DISL,ioos:station:DISL:MHPA:1,2015-03-01T21:30:00Z,30.6671,-87.9365,1.072,0.09,1111122 
DISL,ioos:station:DISL:MHPA:1,2015-03-01T22:00:00Z,30.6671,-87.9365,1.087,0.09,1111122 
DISL,ioos:station:DISL:MHPA:1,2015-03-01T22:30:00Z,30.6671,-87.9365,1.111,0.09,1111122 
DISL,ioos:station:DISL:MHPA:1,2015-03-01T23:00:00Z,30.6671,-87.9365,1.105,0.09,1111122 
DISL,ioos:station:DISL:MHPA:1,2015-03-01T23:30:00Z,30.6671,-87.9365,1.148,0.09,1111122 
DISL,ioos:station:DISL:MHPA:1,2015-03-02T00:00:00Z,30.6671,-87.9365,1.159,0.08,1111122 
DISL,ioos:station:DISL:MHPA:1,2015-03-02T00:30:00Z,30.6671,-87.9365,1.172,0.08,1111122 
DISL,ioos:station:DISL:MHPA:1,2015-03-02T01:00:00Z,30.6671,-87.9365,1.176,0.08,1111122 
DISL,ioos:station:DISL:MHPA:1,2015-03-02T01:30:00Z,30.6671,-87.9365,1.198,0.08,1111122 
DISL,ioos:station:DISL:MHPA:1,2015-03-02T02:00:00Z,30.6671,-87.9365,1.209,0.08,1111122 
DISL,ioos:station:DISL:MHPA:1,2015-03-02T02:30:00Z,30.6671,-87.9365,1.203,0.09,1111122 
DISL,ioos:station:DISL:MHPA:1,2015-03-02T03:00:00Z,30.6671,-87.9365,1.208,0.09,1111122 
DISL,ioos:station:DISL:MHPA:1,2015-03-02T03:30:00Z,30.6671,-87.9365,1.207,0.07,1111122 
DISL,ioos:station:DISL:MHPA:1,2015-03-02T04:00:00Z,30.6671,-87.9365,1.201,0.07,1111122 
DISL,ioos:station:DISL:MHPA:1,2015-03-02T04:30:00Z,30.6671,-87.9365,1.183,0.08,1111122 
DISL,ioos:station:DISL:MHPA:1,2015-03-02T05:00:00Z,30.6671,-87.9365,1.155,0.08,1111122 
DISL,ioos:station:DISL:MHPA:1,2015-03-02T05:30:00Z,30.6671,-87.9365,1.14,0.08,1111122 
DISL,ioos:station:DISL:MHPA:1,2015-03-02T06:00:00Z,30.6671,-87.9365,1.115,0.08,1111122 
DISL,ioos:station:DISL:MHPA:1,2015-03-02T06:30:00Z,30.6671,-87.9365,1.091,0.09,1111122 
DISL,ioos:station:DISL:MHPA:1,2015-03-02T07:00:00Z,30.6671,-87.9365,1.056,0.09,1111122 
DISL,ioos:station:DISL:MHPA:1,2015-03-02T07:30:00Z,30.6671,-87.9365,1.028,0.08,1111122 
DISL,ioos:station:DISL:MHPA:1,2015-03-02T08:00:00Z,30.6671,-87.9365,1.011,0.09,1111122 
DISL,ioos:station:DISL:MHPA:1,2015-03-02T08:30:00Z,30.6671,-87.9365,0.988,0.08,1111122 
DISL,ioos:station:DISL:MHPA:1,2015-03-02T09:00:00Z,30.6671,-87.9365,0.97,0.08,1111122 
DISL,ioos:station:DISL:MHPA:1,2015-03-02T09:30:00Z,30.6671,-87.9365,0.951,0.08,1111122 
DISL,ioos:station:DISL:MHPA:1,2015-03-02T10:00:00Z,30.6671,-87.9365,0.925,0.08,1111122 
DISL,ioos:station:DISL:MHPA:1,2015-03-02T10:30:00Z,30.6671,-87.9365,0.901,0.08,1111122 
DISL,ioos:station:DISL:MHPA:1,2015-03-02T11:00:00Z,30.6671,-87.9365,0.879,0.08,1111122 
DISL,ioos:station:DISL:MHPA:1,2015-03-02T11:30:00Z,30.6671,-87.9365,0.865,0.08,1111122 
DISL,ioos:station:DISL:MHPA:1,2015-03-02T12:00:00Z,30.6671,-87.9365,0.856,0.09,1111122 
DISL,ioos:station:DISL:MHPA:1,2015-03-02T12:30:00Z,30.6671,-87.9365,0.842,0.09,1111122 
DISL,ioos:station:DISL:MHPA:1,2015-03-02T13:00:00Z,30.6671,-87.9365,0.827,0.09,1111122 
DISL,ioos:station:DISL:MHPA:1,2015-03-02T13:30:00Z,30.6671,-87.9365,0.815,0.09,1111122 
DISL,ioos:station:DISL:MHPA:1,2015-03-02T14:00:00Z,30.6671,-87.9365,0.81,0.09,1111122 
DISL,ioos:station:DISL:MHPA:1,2015-03-02T14:30:00Z,30.6671,-87.9365,0.81,0.09,1111122 
DISL,ioos:station:DISL:MHPA:1,2015-03-02T15:00:00Z,30.6671,-87.9365,0.846,0.09,1111122 
DISL,ioos:station:DISL:MHPA:1,2015-03-02T15:30:00Z,30.6671,-87.9365,0.874,0.08,1111122 
DISL,ioos:station:DISL:MHPA:1,2015-03-02T16:00:00Z,30.6671,-87.9365,0.876,0.08,1111122 
DISL,ioos:station:DISL:MHPA:1,2015-03-02T16:30:00Z,30.6671,-87.9365,0.881,0.08,1111122 
DISL,ioos:station:DISL:MHPA:1,2015-03-02T17:00:00Z,30.6671,-87.9365,0.887,0.08,1111122 
DISL,ioos:station:DISL:MHPA:1,2015-03-02T17:30:00Z,30.6671,-87.9365,0.886,0.08,1111122 
DISL,ioos:station:DISL:MHPA:1,2015-03-02T18:00:00Z,30.6671,-87.9365,0.881,0.08,1111122 
DISL,ioos:station:DISL:MHPA:1,2015-03-02T18:30:00Z,30.6671,-87.9365,0.895,0.09,1111122 
DISL,ioos:station:DISL:MHPA:1,2015-03-02T19:00:00Z,30.6671,-87.9365,0.922,0.08,1111122 
DISL,ioos:station:DISL:MHPA:1,2015-03-02T19:30:00Z,30.6671,-87.9365,0.947,0.08,1111122 
DISL,ioos:station:DISL:MHPA:1,2015-03-02T20:00:00Z,30.6671,-87.9365,0.961,0.07,1111122 
DISL,ioos:station:DISL:MHPA:1,2015-03-02T20:30:00Z,30.6671,-87.9365,0.972,0.07,1111122 
DISL,ioos:station:DISL:MHPA:1,2015-03-02T21:00:00Z,30.6671,-87.9365,1.01,0.07,1111122 
DISL,ioos:station:DISL:MHPA:1,2015-03-02T21:30:00Z,30.6671,-87.9365,1.016,0.07,1111122 
DISL,ioos:station:DISL:MHPA:1,2015-03-02T22:00:00Z,30.6671,-87.9365,1.014,0.07,1111122 
DISL,ioos:station:DISL:MHPA:1,2015-03-02T22:30:00Z,30.6671,-87.9365,1.02,0.06,1111122 
DISL,ioos:station:DISL:MHPA:1,2015-03-02T23:00:00Z,30.6671,-87.9365,1.03,0.07,1111122 
DISL,ioos:station:DISL:MHPA:1,2015-03-02T23:30:00Z,30.6671,-87.9365,1.034,0.07,1111122 
DISL,ioos:station:DISL:MHPA:1,2015-03-03T00:00:00Z,30.6671,-87.9365,1.06,0.07,1111122 
DISL,ioos:station:DISL:MHPA:1,2015-03-03T00:30:00Z,30.6671,-87.9365,1.079,0.07,1111122 
DISL,ioos:station:DISL:MHPA:1,2015-03-03T01:00:00Z,30.6671,-87.9365,1.103,0.07,1111122 
DISL,ioos:station:DISL:MHPA:1,2015-03-03T01:30:00Z,30.6671,-87.9365,1.134,0.07,1111122 
DISL,ioos:station:DISL:MHPA:1,2015-03-03T02:00:00Z,30.6671,-87.9365,1.145,0.07,1111122 
DISL,ioos:station:DISL:MHPA:1,2015-03-03T02:30:00Z,30.6671,-87.9365,1.169,0.07,1111122 
DISL,ioos:station:DISL:MHPA:1,2015-03-03T03:00:00Z,30.6671,-87.9365,1.182,0.07,1111122 
DISL,ioos:station:DISL:MHPA:1,2015-03-03T03:30:00Z,30.6671,-87.9365,1.178,0.07,1111122 
DISL,ioos:station:DISL:MHPA:1,2015-03-03T04:00:00Z,30.6671,-87.9365,1.183,0.08,1111122 
DISL,ioos:station:DISL:MHPA:1,2015-03-03T04:30:00Z,30.6671,-87.9365,1.172,0.07,1111122 
DISL,ioos:station:DISL:MHPA:1,2015-03-03T05:00:00Z,30.6671,-87.9365,1.154,0.07,1111122 
DISL,ioos:station:DISL:MHPA:1,2015-03-03T05:30:00Z,30.6671,-87.9365,1.153,0.07,1111122 
DISL,ioos:station:DISL:MHPA:1,2015-03-03T06:00:00Z,30.6671,-87.9365,1.137,0.07,1111122 
DISL,ioos:station:DISL:MHPA:1,2015-03-03T06:30:00Z,30.6671,-87.9365,1.113,0.07,1111122 
DISL,ioos:station:DISL:MHPA:1,2015-03-03T07:00:00Z,30.6671,-87.9365,1.092,0.08,1111122 
DISL,ioos:station:DISL:MHPA:1,2015-03-03T07:30:00Z,30.6671,-87.9365,1.068,0.07,1111122 
DISL,ioos:station:DISL:MHPA:1,2015-03-03T08:00:00Z,30.6671,-87.9365,1.039,0.07,1111122 
DISL,ioos:station:DISL:MHPA:1,2015-03-03T08:30:00Z,30.6671,-87.9365,1.013,0.07,1111122 
DISL,ioos:station:DISL:MHPA:1,2015-03-03T09:00:00Z,30.6671,-87.9365,0.983,0.07,1111122 
DISL,ioos:station:DISL:MHPA:1,2015-03-03T09:30:00Z,30.6671,-87.9365,0.957,0.07,1111122 
DISL,ioos:station:DISL:MHPA:1,2015-03-03T10:00:00Z,30.6671,-87.9365,0.935,0.07,1111122 
DISL,ioos:station:DISL:MHPA:1,2015-03-03T10:30:00Z,30.6671,-87.9365,0.912,0.07,1111122 
DISL,ioos:station:DISL:MHPA:1,2015-03-03T11:00:00Z,30.6671,-87.9365,0.894,0.07,1111122 
DISL,ioos:station:DISL:MHPA:1,2015-03-03T11:30:00Z,30.6671,-87.9365,0.88,0.07,1111122 
DISL,ioos:station:DISL:MHPA:1,2015-03-03T12:00:00Z,30.6671,-87.9365,0.864,0.07,1111122 
DISL,ioos:station:DISL:MHPA:1,2015-03-03T12:30:00Z,30.6671,-87.9365,0.852,0.07,1111122 
DISL,ioos:station:DISL:MHPA:1,2015-03-03T13:00:00Z,30.6671,-87.9365,0.844,0.07,1111122 
DISL,ioos:station:DISL:MHPA:1,2015-03-03T13:30:00Z,30.6671,-87.9365,0.837,0.07,1111122 
DISL,ioos:station:DISL:MHPA:1,2015-03-03T14:00:00Z,30.6671,-87.9365,0.832,0.07,1111122 
DISL,ioos:station:DISL:MHPA:1,2015-03-03T14:30:00Z,30.6671,-87.9365,0.836,0.07,1111122 
DISL,ioos:station:DISL:MHPA:1,2015-03-03T15:00:00Z,30.6671,-87.9365,0.833,0.07,1111122 
DISL,ioos:station:DISL:MHPA:1,2015-03-03T15:30:00Z,30.6671,-87.9365,0.857,0.07,1111122 
DISL,ioos:station:DISL:MHPA:1,2015-03-03T16:00:00Z,30.6671,-87.9365,0.874,0.07,1111122 
DISL,ioos:station:DISL:MHPA:1,2015-03-03T16:30:00Z,30.6671,-87.9365,0.894,0.07,1111122 
DISL,ioos:station:DISL:MHPA:1,2015-03-03T17:00:00Z,30.6671,-87.9365,0.915,0.07,1111122 
DISL,ioos:station:DISL:MHPA:1,2015-03-03T17:30:00Z,30.6671,-87.9365,0.931,0.07,1111122 
DISL,ioos:station:DISL:MHPA:1,2015-03-03T18:00:00Z,30.6671,-87.9365,0.943,0.07,1111122 
DISL,ioos:station:DISL:MHPA:1,2015-03-03T18:30:00Z,30.6671,-87.9365,0.968,0.07,1111122 
DISL,ioos:station:DISL:MHPA:1,2015-03-03T19:00:00Z,30.6671,-87.9365,0.994,0.07,1111122 
DISL,ioos:station:DISL:MHPA:1,2015-03-03T19:30:00Z,30.6671,-87.9365,1.02,0.07,1111122 
DISL,ioos:station:DISL:MHPA:1,2015-03-03T20:00:00Z,30.6671,-87.9365,1.011,0.07,1111122 
DISL,ioos:station:DISL:MHPA:1,2015-03-03T20:30:00Z,30.6671,-87.9365,1.046,0.07,1111122 
DISL,ioos:station:DISL:MHPA:1,2015-03-03T21:00:00Z,30.6671,-87.9365,1.062,0.07,1111122 
DISL,ioos:station:DISL:MHPA:1,2015-03-03T21:30:00Z,30.6671,-87.9365,1.052,0.07,1111122 
DISL,ioos:station:DISL:MHPA:1,2015-03-03T22:00:00Z,30.6671,-87.9365,1.065,0.07,1111122 
DISL,ioos:station:DISL:MHPA:1,2015-03-03T22:30:00Z,30.6671,-87.9365,1.064,0.07,1111122 
DISL,ioos:station:DISL:MHPA:1,2015-03-03T23:00:00Z,30.6671,-87.9365,1.057,0.07,1111122 
DISL,ioos:station:DISL:MHPA:1,2015-03-03T23:30:00Z,30.6671,-87.9365,1.055,0.07,1111122 
DISL,ioos:station:DISL:MHPA:1,2015-03-04T00:00:00Z,30.6671,-87.9365,1.081,0.07,1111122 
DISL,ioos:station:DISL:MHPA:1,2015-03-04T00:30:00Z,30.6671,-87.9365,1.088,0.07,1111122 
DISL,ioos:station:DISL:MHPA:1,2015-03-04T01:00:00Z,30.6671,-87.9365,1.09,0.07,1111122 
DISL,ioos:station:DISL:MHPA:1,2015-03-04T01:30:00Z,30.6671,-87.9365,1.126,0.07,1111122 
DISL,ioos:station:DISL:MHPA:1,2015-03-04T02:00:00Z,30.6671,-87.9365,1.158,0.07,1111122 
DISL,ioos:station:DISL:MHPA:1,2015-03-04T02:30:00Z,30.6671,-87.9365,1.175,0.07,1111122 
DISL,ioos:station:DISL:MHPA:1,2015-03-04T03:00:00Z,30.6671,-87.9365,1.206,0.07,1111122 
DISL,ioos:station:DISL:MHPA:1,2015-03-04T03:30:00Z,30.6671,-87.9365,1.215,0.07,1111122 
DISL,ioos:station:DISL:MHPA:1,2015-03-04T04:00:00Z,30.6671,-87.9365,1.242,0.07,1111122 
DISL,ioos:station:DISL:MHPA:1,2015-03-04T04:30:00Z,30.6671,-87.9365,1.254,0.07,1111122 
DISL,ioos:station:DISL:MHPA:1,2015-03-04T05:00:00Z,30.6671,-87.9365,1.257,0.07,1111122 
DISL,ioos:station:DISL:MHPA:1,2015-03-04T05:30:00Z,30.6671,-87.9365,1.258,0.07,1111122 
DISL,ioos:station:DISL:MHPA:1,2015-03-04T06:00:00Z,30.6671,-87.9365,1.248,0.07,1111122 
DISL,ioos:station:DISL:MHPA:1,2015-03-04T06:30:00Z,30.6671,-87.9365,1.23,0.07,1111122 
DISL,ioos:station:DISL:MHPA:1,2015-03-04T07:00:00Z,30.6671,-87.9365,1.211,0.07,1111122 
DISL,ioos:station:DISL:MHPA:1,2015-03-04T07:30:00Z,30.6671,-87.9365,1.187,0.07,1111122 
DISL,ioos:station:DISL:MHPA:1,2015-03-04T08:00:00Z,30.6671,-87.9365,1.153,0.07,1111122 
DISL,ioos:station:DISL:MHPA:1,2015-03-04T08:30:00Z,30.6671,-87.9365,1.124,0.07,1111122 
DISL,ioos:station:DISL:MHPA:1,2015-03-04T09:00:00Z,30.6671,-87.9365,1.098,0.07,1111122 
DISL,ioos:station:DISL:MHPA:1,2015-03-04T09:30:00Z,30.6671,-87.9365,1.067,0.08,1111122 
DISL,ioos:station:DISL:MHPA:1,2015-03-04T10:00:00Z,30.6671,-87.9365,1.042,0.08,1111122 
DISL,ioos:station:DISL:MHPA:1,2015-03-04T10:30:00Z,30.6671,-87.9365,1.012,0.07,1111122 
DISL,ioos:station:DISL:MHPA:1,2015-03-04T11:00:00Z,30.6671,-87.9365,0.987,0.08,1111122 
DISL,ioos:station:DISL:MHPA:1,2015-03-04T11:30:00Z,30.6671,-87.9365,0.962,0.08,1111122 
DISL,ioos:station:DISL:MHPA:1,2015-03-04T12:00:00Z,30.6671,-87.9365,0.94,0.07,1111122 
DISL,ioos:station:DISL:MHPA:1,2015-03-04T12:30:00Z,30.6671,-87.9365,0.921,0.08,1111122 
DISL,ioos:station:DISL:MHPA:1,2015-03-04T13:00:00Z,30.6671,-87.9365,0.908,0.08,1111122 
DISL,ioos:station:DISL:MHPA:1,2015-03-04T13:30:00Z,30.6671,-87.9365,0.901,0.08,1111122 
DISL,ioos:station:DISL:MHPA:1,2015-03-04T14:00:00Z,30.6671,-87.9365,0.896,0.08,1111122 
DISL,ioos:station:DISL:MHPA:1,2015-03-04T14:30:00Z,30.6671,-87.9365,0.892,0.08,1111122 
DISL,ioos:station:DISL:MHPA:1,2015-03-04T15:00:00Z,30.6671,-87.9365,0.903,0.08,1111122 
DISL,ioos:station:DISL:MHPA:1,2015-03-04T15:30:00Z,30.6671,-87.9365,0.922,0.07,1111122 
DISL,ioos:station:DISL:MHPA:1,2015-03-04T16:00:00Z,30.6671,-87.9365,0.937,0.07,1111122 
DISL,ioos:station:DISL:MHPA:1,2015-03-04T16:30:00Z,30.6671,-87.9365,0.949,0.07,1111122 
DISL,ioos:station:DISL:MHPA:1,2015-03-04T17:00:00Z,30.6671,-87.9365,0.972,0.07,1111122 
DISL,ioos:station:DISL:MHPA:1,2015-03-04T17:30:00Z,30.6671,-87.9365,1.0,0.07,1111122 
DISL,ioos:station:DISL:MHPA:1,2015-03-04T18:00:00Z,30.6671,-87.9365,1.042,0.07,1111122 
DISL,ioos:station:DISL:MHPA:1,2015-03-04T18:30:00Z,30.6671,-87.9365,1.075,0.07,1111122 
DISL,ioos:station:DISL:MHPA:1,2015-03-04T19:00:00Z,30.6671,-87.9365,1.108,0.07,1111122 
DISL,ioos:station:DISL:MHPA:1,2015-03-04T19:30:00Z,30.6671,-87.9365,1.124,0.08,1111122 
DISL,ioos:station:DISL:MHPA:1,2015-03-04T20:00:00Z,30.6671,-87.9365,1.138,0.08,1111122 
DISL,ioos:station:DISL:MHPA:1,2015-03-04T20:30:00Z,30.6671,-87.9365,1.155,0.08,1111122 
DISL,ioos:station:DISL:MHPA:1,2015-03-04T21:00:00Z,30.6671,-87.9365,1.159,0.08,1111122 
DISL,ioos:station:DISL:MHPA:1,2015-03-04T21:30:00Z,30.6671,-87.9365,1.172,0.08,1111122 
DISL,ioos:station:DISL:MHPA:1,2015-03-04T22:00:00Z,30.6671,-87.9365,1.169,0.08,1111122 
DISL,ioos:station:DISL:MHPA:1,2015-03-04T22:30:00Z,30.6671,-87.9365,1.158,0.08,1111122 
DISL,ioos:station:DISL:MHPA:1,2015-03-04T23:00:00Z,30.6671,-87.9365,1.171,0.08,1111122 
DISL,ioos:station:DISL:MHPA:1,2015-03-04T23:30:00Z,30.6671,-87.9365,1.172,0.09,1111122 
DISL,ioos:station:DISL:MHPA:1,2015-03-05T00:00:00Z,30.6671,-87.9365,1.156,0.09,1111122 
DISL,ioos:station:DISL:MHPA:1,2015-03-05T00:30:00Z,30.6671,-87.9365,1.154,0.09,1111122 
DISL,ioos:station:DISL:MHPA:1,2015-03-05T01:00:00Z,30.6671,-87.9365,1.161,0.09,1111122 
DISL,ioos:station:DISL:MHPA:1,2015-03-05T01:30:00Z,30.6671,-87.9365,1.171,0.09,1111122 
DISL,ioos:station:DISL:MHPA:1,2015-03-05T02:00:00Z,30.6671,-87.9365,1.182,0.09,1111122 
DISL,ioos:station:DISL:MHPA:1,2015-03-05T02:30:00Z,30.6671,-87.9365,1.219,0.09,1111122 
DISL,ioos:station:DISL:MHPA:1,2015-03-05T03:00:00Z,30.6671,-87.9365,1.255,0.09,1111122 
DISL,ioos:station:DISL:MHPA:1,2015-03-05T03:30:00Z,30.6671,-87.9365,1.28,0.09,1111122 
DISL,ioos:station:DISL:MHPA:1,2015-03-05T04:00:00Z,30.6671,-87.9365,1.33,0.09,1111122 
DISL,ioos:station:DISL:MHPA:1,2015-03-05T04:30:00Z,30.6671,-87.9365,1.342,0.09,1111122 
DISL,ioos:station:DISL:MHPA:1,2015-03-05T05:00:00Z,30.6671,-87.9365,1.372,0.09,1111122 
DISL,ioos:station:DISL:MHPA:1,2015-03-05T05:30:00Z,30.6671,-87.9365,1.365,0.1,1111122 
DISL,ioos:station:DISL:MHPA:1,2015-03-05T06:00:00Z,30.6671,-87.9365,1.337,0.1,1111122 
DISL,ioos:station:DISL:MHPA:1,2015-03-05T06:30:00Z,30.6671,-87.9365,1.335,0.09,1111122 
DISL,ioos:station:DISL:MHPA:1,2015-03-05T07:00:00Z,30.6671,-87.9365,1.316,0.09,1111122 
DISL,ioos:station:DISL:MHPA:1,2015-03-05T07:30:00Z,30.6671,-87.9365,1.299,0.1,1111122 
DISL,ioos:station:DISL:MHPA:1,2015-03-05T08:00:00Z,30.6671,-87.9365,1.285,0.1,1111122 
DISL,ioos:station:DISL:MHPA:1,2015-03-05T08:30:00Z,30.6671,-87.9365,1.25,0.09,1111122 
DISL,ioos:station:DISL:MHPA:1,2015-03-05T09:00:00Z,30.6671,-87.9365,1.211,0.09,1111122 
DISL,ioos:station:DISL:MHPA:1,2015-03-05T09:30:00Z,30.6671,-87.9365,1.186,0.1,1111122 
DISL,ioos:station:DISL:MHPA:1,2015-03-05T10:00:00Z,30.6671,-87.9365,1.174,0.1,1111122 
DISL,ioos:station:DISL:MHPA:1,2015-03-05T10:30:00Z,30.6671,-87.9365,1.126,0.09,1111122 
DISL,ioos:station:DISL:MHPA:1,2015-03-05T11:00:00Z,30.6671,-87.9365,1.091,0.09,1111122 
DISL,ioos:station:DISL:MHPA:1,2015-03-05T11:30:00Z,30.6671,-87.9365,1.061,0.09,1111122 
DISL,ioos:station:DISL:MHPA:1,2015-03-05T12:00:00Z,30.6671,-87.9365,1.053,0.09,1111122 
DISL,ioos:station:DISL:MHPA:1,2015-03-05T12:30:00Z,30.6671,-87.9365,1.042,0.08,1111122 
DISL,ioos:station:DISL:MHPA:1,2015-03-05T13:00:00Z,30.6671,-87.9365,0.999,0.08,1111122 
DISL,ioos:station:DISL:MHPA:1,2015-03-05T13:30:00Z,30.6671,-87.9365,1.002,0.08,1111122 
DISL,ioos:station:DISL:MHPA:1,2015-03-05T14:00:00Z,30.6671,-87.9365,0.972,0.09,1111122 
DISL,ioos:station:DISL:MHPA:1,2015-03-05T14:30:00Z,30.6671,-87.9365,0.942,0.09,1111122 
DISL,ioos:station:DISL:MHPA:1,2015-03-05T15:00:00Z,30.6671,-87.9365,0.911,0.12,1111122 
DISL,ioos:station:DISL:MHPA:1,2015-03-05T15:30:00Z,30.6671,-87.9365,0.862,0.13,1111122 
DISL,ioos:station:DISL:MHPA:1,2015-03-05T16:00:00Z,30.6671,-87.9365,0.82,0.12,1111122 
DISL,ioos:station:DISL:MHPA:1,2015-03-05T16:30:00Z,30.6671,-87.9365,0.785,0.1,1111122 
DISL,ioos:station:DISL:MHPA:1,2015-03-05T17:00:00Z,30.6671,-87.9365,0.754,0.09,1111122 
DISL,ioos:station:DISL:MHPA:1,2015-03-05T17:30:00Z,30.6671,-87.9365,0.726,0.11,1111122 
DISL,ioos:station:DISL:MHPA:1,2015-03-05T18:00:00Z,30.6671,-87.9365,0.7,0.12,1111122 
DISL,ioos:station:DISL:MHPA:1,2015-03-05T18:30:00Z,30.6671,-87.9365,0.688,0.11,1111122 
DISL,ioos:station:DISL:MHPA:1,2015-03-05T19:00:00Z,30.6671,-87.9365,0.693,0.12,1111122 
DISL,ioos:station:DISL:MHPA:1,2015-03-05T19:30:00Z,30.6671,-87.9365,0.701,0.13,1111122 
DISL,ioos:station:DISL:MHPA:1,2015-03-05T20:00:00Z,30.6671,-87.9365,0.693,0.15,1111122 
DISL,ioos:station:DISL:MHPA:1,2015-03-05T20:30:00Z,30.6671,-87.9365,0.676,0.15,1111122 
DISL,ioos:station:DISL:MHPA:1,2015-03-05T21:00:00Z,30.6671,-87.9365,0.656,0.16,1111122 
DISL,ioos:station:DISL:MHPA:1,2015-03-05T21:30:00Z,30.6671,-87.9365,0.635,0.16,1111122 
DISL,ioos:station:DISL:MHPA:1,2015-03-05T22:00:00Z,30.6671,-87.9365,0.62,0.17,1111122 
DISL,ioos:station:DISL:MHPA:1,2015-03-05T22:30:00Z,30.6671,-87.9365,0.607,0.17,1111122 
DISL,ioos:station:DISL:MHPA:1,2015-03-05T23:00:00Z,30.6671,-87.9365,0.595,0.18,1111122 
DISL,ioos:station:DISL:MHPA:1,2015-03-05T23:30:00Z,30.6671,-87.9365,0.587,0.19,1111122 
DISL,ioos:station:DISL:MHPA:1,2015-03-06T00:00:00Z,30.6671,-87.9365,0.577,0.2,1111122 
DISL,ioos:station:DISL:MHPA:1,2015-03-06T00:30:00Z,30.6671,-87.9365,0.571,0.21,1111122 
DISL,ioos:station:DISL:MHPA:1,2015-03-06T01:00:00Z,30.6671,-87.9365,0.564,0.21,1111122 
DISL,ioos:station:DISL:MHPA:1,2015-03-06T01:30:00Z,30.6671,-87.9365,0.557,0.22,1111122 
DISL,ioos:station:DISL:MHPA:1,2015-03-06T02:00:00Z,30.6671,-87.9365,0.552,0.22,1111122 
DISL,ioos:station:DISL:MHPA:1,2015-03-06T02:30:00Z,30.6671,-87.9365,0.546,0.23,1111122 
DISL,ioos:station:DISL:MHPA:1,2015-03-06T03:00:00Z,30.6671,-87.9365,0.542,0.24,1111122 
DISL,ioos:station:DISL:MHPA:1,2015-03-06T03:30:00Z,30.6671,-87.9365,0.538,0.25,1111122 
DISL,ioos:station:DISL:MHPA:1,2015-03-06T04:00:00Z,30.6671,-87.9365,0.533,0.25,1111122 
DISL,ioos:station:DISL:MHPA:1,2015-03-06T04:30:00Z,30.6671,-87.9365,0.529,0.24,1111122 
DISL,ioos:station:DISL:MHPA:1,2015-03-06T05:00:00Z,30.6671,-87.9365,0.525,0.25,1111122 
DISL,ioos:station:DISL:MHPA:1,2015-03-06T05:30:00Z,30.6671,-87.9365,0.523,0.25,1111122 
DISL,ioos:station:DISL:MHPA:1,2015-03-06T06:00:00Z,30.6671,-87.9365,0.519,0.24,1111122 
DISL,ioos:station:DISL:MHPA:1,2015-03-06T06:30:00Z,30.6671,-87.9365,0.517,0.25,1111122 
DISL,ioos:station:DISL:MHPA:1,2015-03-06T07:00:00Z,30.6671,-87.9365,0.515,0.24,1111122 
DISL,ioos:station:DISL:MHPA:1,2015-03-06T07:30:00Z,30.6671,-87.9365,0.514,0.26,1111122 
DISL,ioos:station:DISL:MHPA:1,2015-03-06T08:00:00Z,30.6671,-87.9365,0.512,0.26,1111122 
DISL,ioos:station:DISL:MHPA:1,2015-03-06T08:30:00Z,30.6671,-87.9365,0.511,0.26,1111122 
DISL,ioos:station:DISL:MHPA:1,2015-03-06T09:00:00Z,30.6671,-87.9365,0.511,0.26,1111122 
DISL,ioos:station:DISL:MHPA:1,2015-03-06T09:30:00Z,30.6671,-87.9365,0.512,0.26,1111122 
DISL,ioos:station:DISL:MHPA:1,2015-03-06T10:00:00Z,30.6671,-87.9365,0.512,0.27,1111122 
DISL,ioos:station:DISL:MHPA:1,2015-03-06T10:30:00Z,30.6671,-87.9365,0.514,0.27,1111122 
DISL,ioos:station:DISL:MHPA:1,2015-03-06T11:00:00Z,30.6671,-87.9365,0.516,0.27,1111122 
DISL,ioos:station:DISL:MHPA:1,2015-03-06T11:30:00Z,30.6671,-87.9365,0.516,0.27,1111122 
DISL,ioos:station:DISL:MHPA:1,2015-03-06T12:00:00Z,30.6671,-87.9365,0.517,0.28,1111122 
DISL,ioos:station:DISL:MHPA:1,2015-03-06T12:30:00Z,30.6671,-87.9365,0.517,0.28,1111122 
DISL,ioos:station:DISL:MHPA:1,2015-03-06T13:00:00Z,30.6671,-87.9365,0.518,0.27,1111122 
DISL,ioos:station:DISL:MHPA:1,2015-03-06T13:30:00Z,30.6671,-87.9365,0.517,0.28,1111122 
DISL,ioos:station:DISL:MHPA:1,2015-03-06T14:00:00Z,30.6671,-87.9365,0.518,0.28,1111122 
DISL,ioos:station:DISL:MHPA:1,2015-03-06T14:30:00Z,30.6671,-87.9365,0.517,0.28,1111122 
DISL,ioos:station:DISL:MHPA:1,2015-03-06T15:00:00Z,30.6671,-87.9365,0.516,0.28,1111122 
DISL,ioos:station:DISL:MHPA:1,2015-03-06T15:30:00Z,30.6671,-87.9365,0.516,0.28,1111122 